Location: Newark
(47.5833°N, 8.1500°E)
Time: 18:04:57
(UTC+00:00)

Transit 2A - Pass Details

Date: 04 November 2020
Orbit: 595 x 964 km, 66.7° (Epoch: 29 November)

Event Time Altitude Azimuth Distance (km) Brightness Sun altitude
Rises 04:35:37 0° 322° (NW) 3,551 - -17.3°
Exits shadow 04:37:36 - 332° (NNW) 2,992 8.7 -17.0°
Reaches altitude 10° 04:39:33 10° 346° (NNW) 2,538 8.5 -16.6°
Maximum altitude 04:42:38 14° 18° (NNE) 2,177 8.5 -16.1°
Drops below altitude 10° 04:45:36 10° 50° (NE) 2,406 9.2 -15.6°
Sets 04:49:09 0° 75° (ENE) 3,246 10.6 -15.0°
